When you browse on this site, cookies collect data to enhance your experience and personalize the content and advertising you see.
Visit our Privacy Policy to learn more. By continuing to use the site, you agree to this use of cookies and data.
  • In Hungary
  • List of Countries
  • For 7 days
  • Water Temperature
  • Weather Map
  • News
  • Weather Widgets
  • user-avatar
    Login

    Hourly Weather Rumische

    Today, 6 December, Friday

    Time Temperature Precipitation Wind Pressure Humidity
    00:00 -2°C° 0 mm 5 mps 743 mmHg 85%
    01:00 -4°C° 0 mm 5 mps 743 mmHg 83%
    02:00 -4°C° 0 mm 5 mps 743 mmHg 82%
    03:00 -4°C° 0 mm 5 mps 742 mmHg 82%
    04:00 -4°C° 0 mm 5 mps 742 mmHg 82%
    05:00 -5°C° 0 mm 5 mps 741 mmHg 82%
    06:00 -4°C° 0 mm 5 mps 741 mmHg 82%
    07:00 -4°C° 0 mm 5 mps 741 mmHg 82%
    08:00 -4°C° 0 mm 6 mps 740 mmHg 82%
    09:00 -4°C° 0 mm 6 mps 740 mmHg 79%
    10:00 -3°C° 0 mm 6 mps 740 mmHg 77%
    11:00 -3°C° 0 mm 7 mps 739 mmHg 74%
    12:00 -2°C° 0 mm 7 mps 739 mmHg 71%
    13:00 -2°C° 0 mm 7 mps 739 mmHg 69%
    14:00 -1°C° 0 mm 6 mps 739 mmHg 66%
    15:00 -2°C° 0 mm 6 mps 738 mmHg 67%
    16:00 -2°C° 0 mm 6 mps 738 mmHg 67%
    17:00 -2°C° 0 mm 6 mps 738 mmHg 67%
    18:00 -2°C° 0 mm 6 mps 738 mmHg 72%
    19:00 -2°C° 0 mm 6 mps 738 mmHg 77%
    20:00 -2°C° 0 mm 6 mps 738 mmHg 82%
    21:00 -2°C° 0.1 mm 6 mps 738 mmHg 83%
    22:00 -2°C° 0.1 mm 6 mps 738 mmHg 84%
    23:00 -2°C° 0.1 mm 6 mps 738 mmHg 85%

    Tomorrow, 7 December, Saturday

    Time Temperature Precipitation Wind Pressure Humidity
    00:00 -2°C° 0 mm 6 mps 738 mmHg 85%
    01:00 -1°C° 0 mm 5 mps 738 mmHg 86%
    02:00 -1°C° 0 mm 5 mps 738 mmHg 86%
    03:00 -1°C° 0.1 mm 5 mps 738 mmHg 88%
    04:00 -2°C° 0.1 mm 5 mps 737 mmHg 90%
    05:00 -2°C° 0.1 mm 4 mps 737 mmHg 92%
    06:00 -2°C° 0.3 mm 4 mps 737 mmHg 91%
    07:00 -2°C° 0.3 mm 5 mps 737 mmHg 91%
    08:00 -2°C° 0.3 mm 5 mps 736 mmHg 90%
    09:00 -2°C° 0.1 mm 5 mps 736 mmHg 86%
    10:00 -1°C° 0.1 mm 5 mps 736 mmHg 82%
    11:00 -2°C° 0.1 mm 6 mps 735 mmHg 78%
    12:00 -2°C° 0 mm 6 mps 735 mmHg 78%
    13:00 -2°C° 0 mm 6 mps 735 mmHg 77%
    14:00 -2°C° 0 mm 6 mps 734 mmHg 77%
    15:00 -2°C° 0 mm 6 mps 734 mmHg 78%
    16:00 -2°C° 0 mm 6 mps 734 mmHg 79%
    17:00 -2°C° 0 mm 6 mps 733 mmHg 80%
    18:00 -2°C° 0 mm 6 mps 733 mmHg 83%
    19:00 -2°C° 0 mm 6 mps 733 mmHg 86%
    20:00 -1°C° 0 mm 6 mps 733 mmHg 89%
    21:00 -1°C° 0.2 mm 6 mps 732 mmHg 90%
    22:00 +1°C° 0.2 mm 6 mps 732 mmHg 92%
    23:00 +1°C° 0.2 mm 6 mps 731 mmHg 93%

    Day after tomorrow, 8 December, Sunday

    Time Temperature Precipitation Wind Pressure Humidity
    00:00 +1°C° 0.3 mm 6 mps 731 mmHg 92%
    01:00 +1°C° 0.3 mm 6 mps 731 mmHg 90%
    02:00 +2°C° 0.3 mm 5 mps 731 mmHg 88%
    03:00 +1°C° 0 mm 5 mps 731 mmHg 86%
    04:00 +1°C° 0 mm 5 mps 731 mmHg 84%
    05:00 0°C° 0 mm 5 mps 731 mmHg 82%
    06:00 0°C° 0 mm 5 mps 732 mmHg 83%
    07:00 -1°C° 0 mm 5 mps 732 mmHg 83%
    08:00 -2°C° 0 mm 6 mps 733 mmHg 84%
    09:00 -2°C° 0 mm 6 mps 733 mmHg 82%
    10:00 -2°C° 0 mm 6 mps 734 mmHg 80%
    11:00 -1°C° 0 mm 6 mps 734 mmHg 78%
    12:00 -1°C° 0 mm 6 mps 734 mmHg 79%
    13:00 0°C° 0 mm 5 mps 735 mmHg 79%
    14:00 0°C° 0 mm 4 mps 735 mmHg 79%
    15:00 -1°C° 0 mm 4 mps 735 mmHg 83%
    16:00 -1°C° 0 mm 4 mps 735 mmHg 87%
    17:00 -1°C° 0 mm 4 mps 735 mmHg 90%
    18:00 -1°C° 0 mm 4 mps 734 mmHg 92%
    19:00 -1°C° 0 mm 4 mps 734 mmHg 94%
    20:00 -1°C° 0 mm 5 mps 734 mmHg 96%
    21:00 0°C° 0.4 mm 5 mps 733 mmHg 95%
    22:00 +1°C° 0.4 mm 6 mps 733 mmHg 95%
    23:00 +1°C° 0.4 mm 6 mps 732 mmHg 95%

    9 December, Monday

    Time Temperature Precipitation Wind Pressure Humidity
    00:00 +2°C° 0.2 mm 6 mps 732 mmHg 94%
    01:00 +2°C° 0.2 mm 6 mps 731 mmHg 92%
    02:00 +2°C° 0.2 mm 6 mps 731 mmHg 91%
    03:00 +2°C° 0.1 mm 6 mps 730 mmHg 91%
    04:00 +2°C° 0.1 mm 6 mps 730 mmHg 91%
    05:00 +3°C° 0.1 mm 6 mps 730 mmHg 90%
    06:00 +2°C° 0.1 mm 6 mps 730 mmHg 91%
    07:00 +2°C° 0.1 mm 6 mps 729 mmHg 91%
    08:00 +2°C° 0.1 mm 5 mps 729 mmHg 92%
    09:00 +3°C° 0.5 mm 5 mps 730 mmHg 91%
    10:00 +3°C° 0.5 mm 5 mps 730 mmHg 90%
    11:00 +3°C° 0.5 mm 5 mps 730 mmHg 89%
    12:00 +4°C° 0.1 mm 4 mps 730 mmHg 88%
    13:00 +4°C° 0.1 mm 4 mps 730 mmHg 87%
    14:00 +4°C° 0.1 mm 4 mps 730 mmHg 86%
    15:00 +4°C° 0.1 mm 4 mps 730 mmHg 87%
    16:00 +3°C° 0.1 mm 4 mps 730 mmHg 89%
    17:00 +3°C° 0.1 mm 3 mps 730 mmHg 91%
    18:00 +2°C° 0.1 mm 3 mps 731 mmHg 90%
    19:00 +1°C° 0.1 mm 4 mps 731 mmHg 90%
    20:00 +1°C° 0.1 mm 4 mps 732 mmHg 90%
    21:00 +2°C° 0 mm 3 mps 732 mmHg 91%
    22:00 +1°C° 0 mm 3 mps 732 mmHg 92%
    23:00 0°C° 0 mm 3 mps 732 mmHg 93%

    10 December, Tuesday

    Time Temperature Precipitation Wind Pressure Humidity
    00:00 0°C° 0 mm 3 mps 732 mmHg 93%
    01:00 0°C° 0 mm 3 mps 732 mmHg 94%
    02:00 0°C° 0 mm 3 mps 732 mmHg 94%
    03:00 +1°C° 0 mm 2 mps 732 mmHg 94%
    04:00 +1°C° 0 mm 2 mps 732 mmHg 94%
    05:00 -1°C° 0 mm 2 mps 733 mmHg 95%
    06:00 -1°C° 0 mm 2 mps 732 mmHg 95%
    07:00 -1°C° 0 mm 2 mps 732 mmHg 95%
    08:00 -1°C° 0 mm 2 mps 732 mmHg 95%
    09:00 +1°C° 0 mm 2 mps 732 mmHg 94%
    10:00 +1°C° 0 mm 2 mps 733 mmHg 93%
    11:00 +2°C° 0 mm 2 mps 733 mmHg 93%
    12:00 +2°C° 0 mm 2 mps 733 mmHg 93%
    13:00 +3°C° 0 mm 1 mps 732 mmHg 94%
    14:00 +3°C° 0 mm 1 mps 732 mmHg 94%
    15:00 +3°C° 0 mm 1 mps 732 mmHg 95%
    16:00 +3°C° 0 mm 1 mps 733 mmHg 95%
    17:00 +3°C° 0 mm 1 mps 733 mmHg 96%
    18:00 0°C° 0.2 mm 3 mps 734 mmHg 95%
    19:00 -2°C° 0.2 mm 5 mps 734 mmHg 94%
    20:00 -4°C° 0.2 mm 7 mps 735 mmHg 94%
    21:00 -4°C° 0.2 mm 7 mps 735 mmHg 85%
    22:00 -5°C° 0.2 mm 6 mps 736 mmHg 76%
    23:00 -5°C° 0.2 mm 6 mps 737 mmHg 67%

    11 December, Wednesday

    Time Temperature Precipitation Wind Pressure Humidity
    00:00 -5°C° 0 mm 6 mps 737 mmHg 69%
    01:00 -6°C° 0 mm 5 mps 738 mmHg 70%
    02:00 -6°C° 0 mm 5 mps 739 mmHg 71%
    03:00 -6°C° 0 mm 5 mps 739 mmHg 73%
    04:00 -6°C° 0 mm 5 mps 739 mmHg 75%
    05:00 -5°C° 0 mm 5 mps 740 mmHg 78%
    06:00 -4°C° 0 mm 4 mps 740 mmHg 79%
    07:00 -4°C° 0 mm 4 mps 741 mmHg 80%
    08:00 -5°C° 0 mm 4 mps 741 mmHg 81%
    09:00 -4°C° 0 mm 4 mps 741 mmHg 80%
    10:00 -4°C° 0 mm 4 mps 742 mmHg 80%
    11:00 -3°C° 0 mm 4 mps 742 mmHg 80%
    12:00 -3°C° 0 mm 4 mps 742 mmHg 79%
    13:00 -2°C° 0 mm 3 mps 742 mmHg 78%
    14:00 -2°C° 0 mm 3 mps 742 mmHg 78%
    15:00 -4°C° 0 mm 3 mps 742 mmHg 79%
    16:00 -4°C° 0 mm 3 mps 742 mmHg 81%
    17:00 -4°C° 0 mm 2 mps 742 mmHg 82%
    18:00 -4°C° 0 mm 3 mps 742 mmHg 80%
    19:00 -4°C° 0 mm 3 mps 742 mmHg 77%
    20:00 -4°C° 0 mm 3 mps 741 mmHg 75%
    21:00 -4°C° 0 mm 4 mps 741 mmHg 73%
    22:00 -4°C° 0 mm 4 mps 741 mmHg 70%
    23:00 -4°C° 0 mm 4 mps 740 mmHg 68%
    Show more